TimeEST,TemperatureF,Dew PointF,Humidity,Sea Level PressureIn,VisibilityMPH,Wind Direction,Wind SpeedMPH,Gust SpeedMPH,PrecipitationIn,Events,Conditions,WindDirDegrees,DateUTC
12:53 AM,28.0,6.1,39,30.36,10.0,North,3.5,-,N/A,,Clear,350,2013-02-07 05:53:00
1:53 AM,24.1,7.0,48,30.38,10.0,Calm,Calm,-,N/A,,Clear,0,2013-02-07 06:53:00
2:53 AM,24.1,7.0,48,30.39,10.0,Calm,Calm,-,N/A,,Clear,0,2013-02-07 07:53:00
3:53 AM,26.1,5.0,41,30.41,10.0,North,4.6,-,N/A,,Clear,350,2013-02-07 08:53:00
4:53 AM,23.0,7.0,50,30.43,10.0,NNE,3.5,-,N/A,,Clear,20,2013-02-07 09:53:00
5:53 AM,24.1,6.1,46,30.44,10.0,NE,5.8,-,N/A,,Clear,40,2013-02-07 10:53:00
6:53 AM,24.1,9.0,53,30.45,10.0,NE,5.8,-,N/A,,Clear,40,2013-02-07 11:53:00
7:53 AM,25.0,9.0,51,30.50,10.0,North,6.9,-,N/A,,Clear,10,2013-02-07 12:53:00
8:53 AM,26.1,8.1,47,30.51,10.0,NNE,6.9,-,N/A,,Clear,30,2013-02-07 13:53:00
9:53 AM,27.0,9.0,47,30.51,10.0,NNE,8.1,-,N/A,,Clear,20,2013-02-07 14:53:00
10:53 AM,28.9,8.1,41,30.53,10.0,ENE,10.4,-,N/A,,Clear,60,2013-02-07 15:53:00
11:53 AM,30.0,7.0,38,30.49,10.0,NE,8.1,-,N/A,,Clear,50,2013-02-07 16:53:00
12:53 PM,32.0,6.1,34,30.48,10.0,NE,5.8,-,N/A,,Clear,40,2013-02-07 17:53:00
1:53 PM,32.0,3.0,29,30.46,10.0,East,3.5,-,N/A,,Clear,80,2013-02-07 18:53:00
2:53 PM,32.0,6.1,34,30.45,10.0,NNE,4.6,-,N/A,,Clear,20,2013-02-07 19:53:00
3:53 PM,32.0,9.0,38,30.44,10.0,ESE,6.9,-,N/A,,Clear,110,2013-02-07 20:53:00
4:53 PM,30.0,12.0,47,30.43,10.0,ESE,9.2,-,N/A,,Clear,110,2013-02-07 21:53:00
5:53 PM,30.0,14.0,51,30.43,10.0,East,8.1,-,N/A,,Scattered Clouds,100,2013-02-07 22:53:00
6:53 PM,28.9,14.0,54,30.43,10.0,East,5.8,-,N/A,,Clear,80,2013-02-07 23:53:00
7:53 PM,28.9,16.0,58,30.43,10.0,ENE,5.8,-,N/A,,Clear,70,2013-02-08 00:53:00
8:53 PM,28.9,17.1,61,30.42,10.0,ENE,5.8,-,N/A,,Overcast,70,2013-02-08 01:53:00
9:53 PM,28.9,19.0,67,30.40,10.0,ENE,4.6,-,N/A,,Mostly Cloudy,60,2013-02-08 02:53:00
10:53 PM,30.0,19.9,66,30.38,10.0,ENE,5.8,-,N/A,,Overcast,70,2013-02-08 03:53:00
11:53 PM,30.9,21.9,69,30.35,10.0,ENE,6.9,-,N/A,,Overcast,60,2013-02-08 04:53:00